Overview Statistics Trail Chart Weather Telemetry Raw packets
 

This is the latest recevied weather packets stored in our database for station/object OK2ZAW-21. If no packets are shown the sender has not sent any weather packets the latest 10 day(s).

<< 36 37 38 39 40 41 42 >>
Time Temp. Humidity Pressure Rain* Wind** Luminosity Snow
1788432563 20° C 64% 1023.5 hPa - - 427 W/m² -
1788432252 20° C 64% 1023.5 hPa - - 426 W/m² -
1788431940 20.56° C 64% 1023.5 hPa - - 425 W/m² -
1788431629 20° C 64% 1023.4 hPa - - 425 W/m² -
1788431318 20.56° C 63% 1023.3 hPa - - 425 W/m² -
1788430695 20.56° C 63% 1023.5 hPa - - 425 W/m² -
1788430383 20.56° C 62% 1023.5 hPa - - 424 W/m² -
1788430072 20.56° C 63% 1023.6 hPa - - 424 W/m² -
1788429761 19.44° C 66% 1023.5 hPa - - 423 W/m² -
1788429449 20.56° C 67% 1023.6 hPa - - 423 W/m² -
1788429138 20.56° C 68% 1023.6 hPa - - 423 W/m² -
1788428205 20.56° C 66% 1023.6 hPa - - 423 W/m² -
1788427893 20° C 71% 1023.7 hPa - - 422 W/m² -
1788427582 20° C 73% 1023.7 hPa - - 422 W/m² -
1788427271 19.44° C 73% 1023.8 hPa - - 422 W/m² -
1788426966 19.44° C 74% 1023.8 hPa - - 422 W/m² -
1788426648 19.44° C 74% 1023.8 hPa - - 422 W/m² -
1788426337 19.44° C 75% 1023.9 hPa - - 421 W/m² -
1788426026 19.44° C 73% 1024 hPa - - 422 W/m² -
1788425715 18.89° C 75% 1024.1 hPa - - 421 W/m² -
1788425404 18.89° C 79% 1024.1 hPa - - 421 W/m² -
1788425093 18.89° C 81% 1024.1 hPa - - 421 W/m² -
1788424782 18.33° C 86% 1024 hPa - - 420 W/m² -
1788424470 18.89° C 91% 1024.2 hPa - - 420 W/m² -
1788424159 18.33° C 95% 1024.2 hPa - - 420 W/m² -

* Rain since midnight (hover to see other rain measurements)
** Current wind speed in m/s (hover to see current wind gust speed)